| time (UTC) | temp C | wind direction | speed KPH | gust KPH | rain 1hr cm | rain 24hr cm | rain mn cm | humidity % | barometer mb |
| 20260508110859 | 10 | 146 | 14.5 | 20.9 | 0.00 | 1.45 | 0.66 | 88 | 1008.7 |
| 20260508105858 | 10 | 140 | 6.4 | 20.9 | 0.00 | 1.45 | 0.66 | 92 | 1008.8 |
| 20260508104859 | 11 | 117 | 11.3 | 22.5 | 0.00 | 1.45 | 0.66 | 89 | 1008.0 |
| 20260508104358 | 10 | 92 | 4.8 | 14.5 | 0.00 | 1.45 | 0.66 | 91 | 1007.9 |
| 20260508103858 | 10 | 101 | 8.0 | 12.9 | 0.00 | 1.45 | 0.66 | 92 | 1007.6 |
| 20260508102858 | 10 | 75 | 9.7 | 14.5 | 0.03 | 1.45 | 0.66 | 95 | 1008.2 |
| 20260508102358 | 10 | 106 | 11.3 | 27.4 | 0.03 | 1.45 | 0.66 | 96 | 1009.0 |
| 20260508101858 | 10 | 113 | 9.7 | 33.8 | 0.05 | 1.45 | 0.66 | 96 | 1009.3 |
| 20260508101359 | 10 | 137 | 12.9 | 27.4 | 0.05 | 1.45 | 0.66 | 97 | 1009.4 |
| 20260508100358 | 10 | 123 | 12.9 | 27.4 | 0.05 | 1.45 | 0.66 | 97 | 1009.5 |
| 20260508095859 | 10 | 126 | 14.5 | 27.4 | 0.05 | 1.45 | 0.66 | 97 | 1009.4 |
| 20260508095358 | 10 | 135 | 12.9 | 27.4 | 0.05 | 1.45 | 0.66 | 97 | 1009.4 |
| 20260508094859 | 10 | 124 | 11.3 | 24.1 | 0.05 | 1.45 | 0.66 | 98 | 1009.0 |
| 20260508094358 | 10 | 112 | 11.3 | 24.1 | 0.08 | 1.45 | 0.66 | 98 | 1009.1 |
| 20260508093859 | 10 | 111 | 9.7 | 24.1 | 0.08 | 1.45 | 0.66 | 98 | 1009.0 |
| 20260508093358 | 10 | 121 | 9.7 | 24.1 | 0.05 | 1.45 | 0.64 | 98 | 1009.1 |
| 20260508092858 | 9 | 80 | 9.7 | 22.5 | 0.05 | 1.45 | 0.64 | 98 | 1009.3 |
| 20260508092359 | 9 | 110 | 9.7 | 19.3 | 0.08 | 1.45 | 0.64 | 98 | 1009.3 |
| 20260508091858 | 9 | 107 | 8.0 | 19.3 | 0.05 | 1.42 | 0.61 | 98 | 1009.3 |
| 20260508091358 | 9 | 104 | 11.3 | 19.3 | 0.05 | 1.42 | 0.61 | 98 | 1009.3 |
| 20260508090859 | 9 | 125 | 12.9 | 22.5 | 0.05 | 1.42 | 0.61 | 98 | 1009.5 |
| 20260508090358 | 9 | 123 | 12.9 | 24.1 | 0.03 | 1.40 | 0.61 | 98 | 1009.2 |
| 20260508085858 | 9 | 91 | 8.0 | 19.3 | 0.05 | 1.40 | 0.61 | 98 | 1009.2 |
| 20260508085359 | 9 | 89 | 4.8 | 12.9 | 0.03 | 1.40 | 0.58 | 98 | 1009.3 |
| 20260508084858 | 9 | 99 | 8.0 | 12.9 | 0.03 | 1.40 | 0.58 | 98 | 1009.2 |
| 20260508084358 | 9 | 75 | 6.4 | 12.9 | 0.03 | 1.37 | 0.58 | 98 | 1009.3 |
| 20260508083359 | 9 | 111 | 9.7 | 22.5 | 0.05 | 1.37 | 0.58 | 98 | 1009.1 |
| 20260508082858 | 9 | 106 | 9.7 | 19.3 | 0.08 | 1.37 | 0.58 | 98 | 1009.2 |
| 20260508082358 | 9 | 100 | 8.0 | 19.3 | 0.10 | 1.37 | 0.56 | 98 | 1009.0 |
| 20260508081858 | 9 | 110 | 8.0 | 16.1 | 0.13 | 1.37 | 0.56 | 98 | 1009.1 |
| 20260508080858 | 9 | 99 | 8.0 | 14.5 | 0.15 | 1.37 | 0.56 | 98 | 1009.0 |
| 20260508080359 | 9 | 107 | 8.0 | 14.5 | 0.15 | 1.37 | 0.56 | 98 | 1008.9 |
| 20260508075858 | 9 | 88 | 4.8 | 16.1 | 0.15 | 1.37 | 0.56 | 98 | 1008.7 |
| 20260508075358 | 9 | 82 | 8.0 | 11.3 | 0.15 | 1.37 | 0.56 | 98 | 1008.6 |
| 20260508074858 | 8 | 94 | 4.8 | 16.1 | 0.18 | 1.37 | 0.56 | 98 | 1008.8 |
| 20260508074358 | 8 | 109 | 9.7 | 16.1 | 0.20 | 1.35 | 0.56 | 99 | 1008.8 |
| 20260508073859 | 8 | 91 | 6.4 | 11.3 | 0.20 | 1.35 | 0.53 | 99 | 1008.8 |
| 20260508073359 | 9 | 116 | 9.7 | 16.1 | 0.18 | 1.32 | 0.51 | 98 | 1009.0 |
| 20260508072858 | 8 | 109 | 11.3 | 19.3 | 0.20 | 1.32 | 0.51 | 99 | 1009.1 |
| 20260508071858 | 9 | 123 | 9.7 | 19.3 | 0.20 | 1.24 | 0.46 | 98 | 1008.9 |
| 20260508071359 | 9 | 105 | 11.3 | 19.3 | 0.25 | 1.24 | 0.43 | 98 | 1009.0 |
| 20260508070859 | 9 | 122 | 14.5 | 22.5 | 0.28 | 1.22 | 0.43 | 98 | 1009.0 |
| 20260508070359 | 9 | 105 | 9.7 | 16.1 | 0.33 | 1.22 | 0.43 | 98 | 1008.9 |
| 20260508065858 | 9 | 124 | 11.3 | 22.5 | 0.36 | 1.22 | 0.41 | 97 | 1008.8 |
| 20260508065358 | 9 | 112 | 12.9 | 29.0 | 0.38 | 1.19 | 0.41 | 97 | 1008.6 |
| 20260508064858 | 9 | 114 | 14.5 | 22.5 | 0.38 | 1.17 | 0.38 | 96 | 1008.5 |
| 20260508064359 | 9 | 107 | 9.7 | 25.7 | 0.36 | 1.14 | 0.36 | 97 | 1008.2 |
| 20260508062858 | 9 | 108 | 8.0 | 14.5 | 0.33 | 1.12 | 0.33 | 99 | 1008.2 |
| 20260508062359 | 9 | 108 | 8.0 | 20.9 | 0.28 | 1.09 | 0.28 | 98 | 1008.5 |
| 20260508061858 | 8 | 125 | 12.9 | 22.5 | 0.25 | 1.04 | 0.25 | 99 | 1008.7 |
| 20260508061359 | 8 | 129 | 9.7 | 19.3 | 0.20 | 1.02 | 0.20 | 98 | 1009.0 |
| 20260508060858 | 8 | 92 | 8.0 | 16.1 | 0.15 | 0.94 | 0.15 | 98 | 1009.1 |
| 20260508060358 | 8 | 112 | 11.3 | 20.9 | 0.10 | 0.91 | 0.10 | 98 | 1009.1 |
| 20260508055859 | 8 | 121 | 11.3 | 19.3 | 0.05 | 0.86 | 0.05 | 98 | 1009.0 |
| 20260508055359 | 8 | 97 | 8.0 | 20.9 | 0.03 | 0.81 | 0.03 | 98 | 1009.1 |
| 20260508053858 | 7 | 96 | 3.2 | 11.3 | 0.00 | 0.79 | 0.00 | 98 | 1008.3 |
| 20260508053358 | 7 | 348 | 3.2 | 8.0 | 0.00 | 0.79 | 0.00 | 98 | 1008.1 |
| 20260508052859 | 7 | 341 | 1.6 | 4.8 | 0.00 | 0.79 | 0.00 | 97 | 1007.9 |
| 20260508052358 | 8 | 56 | 4.8 | 9.7 | 0.00 | 0.79 | 0.00 | 96 | 1007.7 |
| 20260508050859 | 8 | 94 | 4.8 | 12.9 | 0.00 | 0.79 | 0.00 | 96 | 1007.4 |
| 20260508050359 | 8 | 85 | 9.7 | 19.3 | 0.00 | 0.79 | 0.00 | 96 | 1007.3 |
| 20260508045359 | 8 | 56 | 9.7 | 14.5 | 0.00 | 0.79 | 0.00 | 95 | 1007.3 |
| 20260508044859 | 8 | 84 | 4.8 | 12.9 | 0.00 | 0.79 | 0.00 | 95 | 1007.4 |
| 20260508044359 | 8 | 101 | 4.8 | 12.9 | 0.00 | 0.79 | 0.00 | 95 | 1007.4 |
| 20260508043859 | 8 | 93 | 8.0 | 9.7 | 0.00 | 0.79 | 0.00 | 96 | 1007.5 |
| 20260508043359 | 8 | 57 | 8.0 | 11.3 | 0.00 | 0.79 | 0.00 | 96 | 1007.5 |
| 20260508042859 | 8 | 57 | 4.8 | 8.0 | 0.00 | 0.79 | 0.00 | 96 | 1007.5 |
| 20260508042358 | 8 | 69 | 4.8 | 8.0 | 0.00 | 0.79 | 0.00 | 96 | 1007.7 |
| 20260508041858 | 8 | 23 | 3.2 | 8.0 | 0.00 | 0.79 | 0.00 | 97 | 1007.6 |
| 20260508041358 | 8 | 33 | 4.8 | 8.0 | 0.00 | 0.79 | 0.00 | 97 | 1007.6 |
| 20260508040859 | 8 | 36 | 4.8 | 8.0 | 0.00 | 0.79 | 0.00 | 96 | 1007.7 |
| 20260508040359 | 8 | 88 | 3.2 | 8.0 | 0.00 | 0.79 | 0.00 | 96 | 1007.6 |
| 20260508035859 | 8 | 52 | 4.8 | 8.0 | 0.00 | 0.79 | 0.00 | 96 | 1007.6 |
| 20260508035359 | 8 | 326 | 3.2 | 14.5 | 0.00 | 0.79 | 0.00 | 94 | 1007.6 |
| 20260508034359 | 8 | 98 | 4.8 | 12.9 | 0.00 | 0.79 | 0.00 | 94 | 1007.8 |
| 20260508033858 | 9 | 16 | 4.8 | 11.3 | 0.00 | 0.79 | 0.00 | 93 | 1007.6 |
| 20260508033359 | 9 | 119 | 8.0 | 12.9 | 0.00 | 0.79 | 0.00 | 93 | 1007.5 |
| 20260508032359 | 8 | 137 | 9.7 | 14.5 | 0.00 | 0.79 | 0.00 | 94 | 1007.6 |
| 20260508031859 | 8 | 118 | 8.0 | 11.3 | 0.00 | 0.79 | 0.00 | 94 | 1007.7 |
| 20260508031358 | 8 | 130 | 8.0 | 19.3 | 0.00 | 0.79 | 0.00 | 95 | 1007.8 |
| 20260508030858 | 8 | 142 | 9.7 | 16.1 | 0.00 | 0.79 | 0.00 | 95 | 1007.6 |
| 20260508030359 | 8 | 125 | 3.2 | 9.7 | 0.00 | 0.79 | 0.00 | 96 | 1007.8 |
| 20260508025859 | 8 | 34 | 8.0 | 14.5 | 0.00 | 0.79 | 0.00 | 96 | 1007.7 |
| 20260508025359 | 8 | 72 | 3.2 | 8.0 | 0.00 | 0.79 | 0.00 | 97 | 1007.8 |
| 20260508024859 | 8 | 60 | 4.8 | 8.0 | 0.00 | 0.79 | 0.00 | 97 | 1007.9 |
| 20260508024358 | 8 | 33 | 4.8 | 9.7 | 0.00 | 0.79 | 0.00 | 97 | 1007.9 |
| 20260508023859 | 8 | 358 | 3.2 | 8.0 | 0.00 | 0.79 | 0.00 | 97 | 1008.0 |
| 20260508023358 | 8 | 89 | 1.6 | 9.7 | 0.00 | 0.79 | 0.00 | 96 | 1008.1 |
| 20260508022859 | 8 | 36 | 1.6 | 8.0 | 0.00 | 0.79 | 0.00 | 95 | 1008.1 |
| 20260508022359 | 8 | 41 | 3.2 | 11.3 | 0.00 | 0.79 | 0.00 | 94 | 1008.1 |
| 20260508021859 | 9 | 143 | 6.4 | 12.9 | 0.00 | 0.79 | 0.00 | 93 | 1008.1 |
| 20260508021359 | 9 | 116 | 8.0 | 19.3 | 0.00 | 0.79 | 0.00 | 93 | 1007.9 |
| 20260508020358 | 8 | 57 | 8.0 | 12.9 | 0.00 | 0.79 | 0.00 | 93 | 1008.2 |
| 20260508015859 | 9 | 121 | 8.0 | 9.7 | 0.00 | 0.79 | 0.00 | 93 | 1008.2 |
| 20260508015358 | 9 | 93 | 6.4 | 9.7 | 0.00 | 0.79 | 0.00 | 93 | 1008.3 |
| 20260508014859 | 9 | 106 | 6.4 | 9.7 | 0.00 | 0.79 | 0.00 | 92 | 1008.2 |
| 20260508014359 | 9 | 97 | 4.8 | 8.0 | 0.00 | 0.79 | 0.00 | 92 | 1008.3 |
| 20260508013359 | 9 | 95 | 6.4 | 9.7 | 0.00 | 0.79 | 0.00 | 92 | 1008.5 |
| 20260508012359 | 9 | 97 | 4.8 | 8.0 | 0.00 | 0.79 | 0.00 | 94 | 1008.7 |
| 20260508011859 | 9 | 91 | 4.8 | 9.7 | 0.00 | 0.79 | 0.00 | 94 | 1008.6 |
| 20260508011359 | 9 | 102 | 4.8 | 12.9 | 0.00 | 0.79 | 0.00 | 93 | 1008.9 |
| 20260508010858 | 9 | 107 | 8.0 | 16.1 | 0.00 | 0.79 | 0.00 | 93 | 1008.9 |
| 20260508010358 | 9 | 91 | 6.4 | 11.3 | 0.00 | 0.79 | 0.00 | 92 | 1008.9 |
| 20260508005859 | 9 | 111 | 8.0 | 12.9 | 0.00 | 0.79 | 0.00 | 92 | 1008.8 |
| 20260508005359 | 9 | 100 | 8.0 | 12.9 | 0.00 | 0.79 | 0.00 | 91 | 1008.8 |
| 20260508004859 | 9 | 97 | 4.8 | 12.9 | 0.00 | 0.79 | 0.00 | 91 | 1008.9 |
| 20260508004359 | 10 | 100 | 9.7 | 14.5 | 0.00 | 0.79 | 0.00 | 91 | 1009.0 |
| 20260508003859 | 10 | 81 | 6.4 | 9.7 | 0.00 | 0.79 | 0.00 | 91 | 1009.0 |
| 20260508003359 | 10 | 94 | 6.4 | 11.3 | 0.00 | 0.79 | 0.00 | 91 | 1009.3 |
| 20260508002859 | 10 | 104 | 6.4 | 11.3 | 0.00 | 0.79 | 0.00 | 91 | 1009.1 |
| 20260508001859 | 10 | 89 | 4.8 | 9.7 | 0.00 | 0.79 | 0.00 | 91 | 1009.1 |
| 20260508001359 | 10 | 93 | 4.8 | 11.3 | 0.00 | 0.79 | 0.00 | 91 | 1009.2 |
| 20260508000859 | 10 | 106 | 8.0 | 11.3 | 0.00 | 0.79 | 0.00 | 91 | 1009.2 |
| 20260507235859 | 10 | 104 | 8.0 | 9.7 | 0.00 | 0.79 | 0.00 | 91 | 1009.4 |
| 20260507235359 | 10 | 82 | 6.4 | 12.9 | 0.00 | 0.79 | 0.00 | 91 | 1009.4 |
| 20260507234859 | 10 | 94 | 6.4 | 11.3 | 0.00 | 0.79 | 0.00 | 91 | 1009.5 |
| 20260507234359 | 10 | 94 | 8.0 | 11.3 | 0.00 | 0.79 | 0.00 | 91 | 1009.4 |
| 20260507233858 | 10 | 97 | 6.4 | 11.3 | 0.00 | 0.79 | 0.00 | 92 | 1009.6 |
| 20260507233358 | 10 | 107 | 8.0 | 11.3 | 0.00 | 0.79 | 0.00 | 91 | 1009.5 |
| 20260507232858 | 10 | 103 | 8.0 | 9.7 | 0.00 | 0.79 | 0.00 | 91 | 1009.7 |
| 20260507231859 | 10 | 81 | 4.8 | 8.0 | 0.00 | 0.79 | 0.00 | 91 | 1009.5 |
| 20260507230359 | 10 | 86 | 4.8 | 8.0 | 0.00 | 0.79 | 0.00 | 91 | 1009.5 |
| 20260507225359 | 10 | 69 | 3.2 | 4.8 | 0.00 | 0.79 | 0.00 | 92 | 1009.5 |
| 20260507224859 | 10 | 69 | 3.2 | 8.0 | 0.00 | 0.79 | 0.00 | 93 | 1009.6 |
| 20260507224359 | 10 | 62 | 4.8 | 8.0 | 0.00 | 0.79 | 0.00 | 93 | 1009.5 |
| 20260507223859 | 10 | 32 | 3.2 | 4.8 | 0.00 | 0.79 | 0.00 | 93 | 1009.6 |
| 20260507223359 | 10 | 97 | 3.2 | 3.2 | 0.00 | 0.79 | 0.00 | 93 | 1009.4 |
| 20260507222859 | 10 | 99 | 1.6 | 3.2 | 0.00 | 0.79 | 0.00 | 93 | 1009.5 |
| 20260507222359 | 10 | 104 | 3.2 | 3.2 | 0.00 | 0.79 | 0.00 | 93 | 1009.6 |
| 20260507221858 | 10 | 105 | 1.6 | 9.7 | 0.00 | 0.79 | 0.00 | 92 | 1010.0 |
| 20260507221359 | 10 | 124 | 4.8 | 9.7 | 0.00 | 0.79 | 0.00 | 92 | 1009.9 |
| 20260507220859 | 10 | 135 | 8.0 | 9.7 | 0.00 | 0.79 | 0.00 | 92 | 1009.8 |
| 20260507220359 | 10 | 116 | 4.8 | 8.0 | 0.00 | 0.79 | 0.00 | 91 | 1009.7 |
| 20260507215859 | 10 | 107 | 4.8 | 8.0 | 0.00 | 0.79 | 0.79 | 89 | 1009.8 |
| 20260507214900 | 11 | 114 | 4.8 | 9.7 | 0.00 | 0.79 | 0.79 | 86 | 1009.7 |
| 20260507214359 | 11 | 69 | 4.8 | 9.7 | 0.00 | 0.79 | 0.79 | 85 | 1009.6 |
| 20260507213359 | 11 | 99 | 4.8 | 9.7 | 0.00 | 0.79 | 0.79 | 85 | 1009.7 |
| 20260507212359 | 11 | 94 | 4.8 | 9.7 | 0.00 | 0.79 | 0.79 | 85 | 1009.7 |
| 20260507211859 | 11 | 78 | 4.8 | 9.7 | 0.00 | 0.79 | 0.79 | 85 | 1009.5 |
| 20260507211359 | 11 | 92 | 4.8 | 8.0 | 0.00 | 0.79 | 0.79 | 85 | 1009.6 |
| 20260507210859 | 11 | 89 | 4.8 | 9.7 | 0.00 | 0.79 | 0.79 | 86 | 1009.6 |
| 20260507210359 | 11 | 125 | 8.0 | 12.9 | 0.00 | 0.79 | 0.79 | 84 | 1009.7 |
| 20260507205859 | 11 | 112 | 8.0 | 12.9 | 0.00 | 0.79 | 0.79 | 84 | 1009.6 |
| 20260507205359 | 11 | 105 | 8.0 | 12.9 | 0.00 | 0.79 | 0.79 | 85 | 1009.6 |
| 20260507204859 | 11 | 85 | 6.4 | 11.3 | 0.00 | 0.79 | 0.79 | 84 | 1009.6 |
| 20260507204359 | 11 | 113 | 6.4 | 11.3 | 0.00 | 0.79 | 0.79 | 84 | 1009.4 |
| 20260507203859 | 11 | 112 | 8.0 | 14.5 | 0.00 | 0.79 | 0.79 | 83 | 1009.2 |
| 20260507202859 | 11 | 91 | 6.4 | 11.3 | 0.00 | 0.79 | 0.79 | 82 | 1009.3 |
| 20260507202359 | 11 | 101 | 8.0 | 12.9 | 0.00 | 0.79 | 0.79 | 82 | 1009.1 |
| 20260507201859 | 11 | 112 | 9.7 | 12.9 | 0.00 | 0.79 | 0.79 | 82 | 1009.0 |
| 20260507201359 | 12 | 100 | 8.0 | 11.3 | 0.00 | 0.79 | 0.79 | 82 | 1009.0 |
| 20260507200859 | 12 | 104 | 6.4 | 9.7 | 0.00 | 0.79 | 0.79 | 82 | 1008.6 |
| 20260507200359 | 12 | 96 | 4.8 | 9.7 | 0.00 | 0.79 | 0.79 | 81 | 1008.7 |
| 20260507195859 | 12 | 105 | 6.4 | 9.7 | 0.00 | 0.79 | 0.79 | 81 | 1008.8 |
| 20260507195359 | 12 | 90 | 4.8 | 9.7 | 0.00 | 0.79 | 0.79 | 80 | 1008.7 |
| 20260507194859 | 12 | 87 | 6.4 | 14.5 | 0.00 | 0.79 | 0.79 | 79 | 1008.6 |
| 20260507194400 | 12 | 107 | 6.4 | 11.3 | 0.00 | 0.79 | 0.79 | 78 | 1008.7 |
| 20260507193859 | 12 | 92 | 6.4 | 16.1 | 0.00 | 0.79 | 0.79 | 77 | 1008.7 |
| 20260507192859 | 12 | 90 | 6.4 | 11.3 | 0.00 | 0.79 | 0.79 | 75 | 1008.5 |
| 20260507192359 | 12 | 101 | 8.0 | 14.5 | 0.00 | 0.79 | 0.79 | 75 | 1008.5 |
| 20260507191859 | 13 | 103 | 9.7 | 14.5 | 0.00 | 0.79 | 0.79 | 76 | 1008.3 |
| 20260507191359 | 13 | 102 | 8.0 | 19.3 | 0.00 | 0.79 | 0.79 | 75 | 1008.2 |
| 20260507185859 | 13 | 68 | 4.8 | 9.7 | 0.00 | 0.79 | 0.79 | 71 | 1008.0 |
| 20260507185359 | 13 | 45 | 8.0 | 9.7 | 0.00 | 0.79 | 0.79 | 70 | 1008.0 |
| 20260507184859 | 13 | 60 | 8.0 | 11.3 | 0.00 | 0.79 | 0.79 | 72 | 1008.1 |
| 20260507184400 | 13 | 82 | 6.4 | 14.5 | 0.00 | 0.79 | 0.79 | 73 | 1008.2 |
| 20260507183900 | 13 | 68 | 9.7 | 19.3 | 0.00 | 0.79 | 0.79 | 73 | 1008.0 |
| 20260507183359 | 13 | 56 | 16.1 | 22.5 | 0.00 | 0.79 | 0.79 | 73 | 1008.1 |
| 20260507182859 | 13 | 49 | 11.3 | 22.5 | 0.00 | 0.79 | 0.79 | 73 | 1007.8 |
| 20260507182358 | 13 | 53 | 11.3 | 24.1 | 0.00 | 0.79 | 0.79 | 75 | 1008.0 |
| 20260507181859 | 13 | 54 | 11.3 | 22.5 | 0.00 | 0.79 | 0.79 | 77 | 1008.3 |
| 20260507181359 | 13 | 70 | 19.3 | 32.2 | 0.00 | 0.79 | 0.79 | 76 | 1008.1 |
| 20260507180859 | 13 | 64 | 14.5 | 25.7 | 0.00 | 0.79 | 0.79 | 75 | 1008.1 |
| 20260507180359 | 13 | 78 | 9.7 | 22.5 | 0.00 | 0.79 | 0.79 | 75 | 1008.2 |
| 20260507175859 | 13 | 65 | 11.3 | 16.1 | 0.00 | 0.79 | 0.79 | 75 | 1008.1 |
| 20260507175359 | 13 | 76 | 9.7 | 16.1 | 0.00 | 0.79 | 0.79 | 75 | 1008.4 |
| 20260507174900 | 13 | 77 | 8.0 | 14.5 | 0.00 | 0.79 | 0.79 | 77 | 1008.4 |
| 20260507174359 | 13 | 78 | 8.0 | 19.3 | 0.00 | 0.79 | 0.79 | 78 | 1008.5 |
| 20260507173859 | 13 | 69 | 9.7 | 19.3 | 0.00 | 0.79 | 0.79 | 78 | 1008.5 |
| 20260507173359 | 13 | 71 | 11.3 | 20.9 | 0.00 | 0.79 | 0.79 | 80 | 1008.5 |
| 20260507172400 | 13 | 54 | 12.9 | 22.5 | 0.00 | 0.79 | 0.79 | 82 | 1008.6 |
| 20260507171859 | 13 | 68 | 11.3 | 19.3 | 0.00 | 0.79 | 0.79 | 82 | 1008.6 |
| 20260507171400 | 13 | 58 | 14.5 | 20.9 | 0.00 | 0.79 | 0.79 | 83 | 1008.4 |
| 20260507170859 | 13 | 65 | 14.5 | 22.5 | 0.00 | 0.79 | 0.79 | 83 | 1008.3 |
| 20260507170359 | 13 | 42 | 11.3 | 20.9 | 0.00 | 0.79 | 0.79 | 83 | 1008.3 |
| 20260507165859 | 13 | 45 | 17.7 | 29.0 | 0.00 | 0.79 | 0.79 | 83 | 1008.3 |
| 20260507165400 | 13 | 39 | 14.5 | 25.7 | 0.00 | 0.79 | 0.79 | 84 | 1008.1 |
| 20260507164859 | 13 | 56 | 11.3 | 27.4 | 0.00 | 0.79 | 0.79 | 83 | 1008.1 |
| 20260507164359 | 13 | 22 | 19.3 | 29.0 | 0.00 | 0.79 | 0.79 | 81 | 1008.3 |
| 20260507163859 | 13 | 26 | 19.3 | 27.4 | 0.00 | 0.79 | 0.79 | 81 | 1008.1 |
| 20260507163359 | 13 | 18 | 24.1 | 33.8 | 0.00 | 0.79 | 0.79 | 79 | 1008.1 |
| 20260507162359 | 13 | 20 | 20.9 | 33.8 | 0.00 | 0.79 | 0.79 | 77 | 1008.2 |
| 20260507161859 | 13 | 20 | 12.9 | 24.1 | 0.00 | 0.79 | 0.79 | 77 | 1008.2 |
| 20260507160900 | 14 | 326 | 9.7 | 24.1 | 0.00 | 0.79 | 0.79 | 72 | 1007.8 |
| 20260507160400 | 14 | 338 | 14.5 | 29.0 | 0.00 | 0.79 | 0.79 | 72 | 1007.7 |
| 20260507154859 | 14 | 342 | 9.7 | 19.3 | 0.48 | 0.79 | 0.79 | 76 | 1007.4 |
| 20260507152359 | 14 | 341 | 9.7 | 19.3 | 0.79 | 0.79 | 0.79 | 75 | 1007.4 |
| 20260507151900 | 14 | 3 | 11.3 | 20.9 | 0.79 | 0.79 | 0.79 | 74 | 1007.6 |
| 20260507151400 | 13 | 7 | 9.7 | 24.1 | 0.79 | 0.79 | 0.79 | 76 | 1007.7 |
| 20260507150859 | 13 | 353 | 11.3 | 16.1 | 0.79 | 0.79 | 0.79 | 77 | 1007.7 |
| 20260507150359 | 13 | 0 | 9.7 | 19.3 | 0.79 | 0.79 | 0.79 | 77 | 1007.8 |
| 20260507145859 | 12 | 318 | 11.3 | 14.5 | 0.79 | 0.79 | 0.79 | 79 | 1008.1 |
| 20260507145400 | 13 | 338 | 9.7 | 22.5 | 0.71 | 0.71 | 0.71 | 74 | 1008.0 |
| 20260507144359 | 15 | 311 | 14.5 | 20.9 | 0.05 | 0.05 | 0.05 | 61 | 1007.2 |
| 20260507143359 | 16 | 18 | 11.3 | 20.9 | 0.00 | 0.00 | 0.00 | 58 | 1006.6 |
| 20260507142859 | 17 | 39 | 6.4 | 22.5 | 0.00 | 0.00 | 0.00 | 59 | 1006.4 |
| 20260507142400 | 16 | 54 | 4.8 | 12.9 | 0.00 | 0.00 | 0.00 | 61 | 1006.4 |
| 20260507141900 | 16 | 358 | 8.0 | 20.9 | 0.00 | 0.00 | 0.00 | 63 | 1006.3 |
| 20260507141359 | 16 | 332 | 11.3 | 25.7 | 0.00 | 0.00 | 0.00 | 65 | 1006.3 |
| 20260507140359 | 16 | 337 | 19.3 | 25.7 | 0.00 | 0.00 | 0.00 | 62 | 1006.2 |
| 20260507135900 | 17 | 325 | 16.1 | 24.1 | 0.00 | 0.00 | 0.00 | 57 | 1006.0 |
| 20260507134859 | 18 | 85 | 6.4 | 20.9 | 0.00 | 0.00 | 0.00 | 35 | 1005.8 |
| 20260507134359 | 18 | 247 | 8.0 | 24.1 | 0.00 | 0.00 | 0.00 | 37 | 1005.6 |
| 20260507133900 | 19 | 202 | 8.0 | 19.3 | 0.00 | 0.00 | 0.00 | 36 | 1005.4 |
| 20260507133400 | 18 | 112 | 9.7 | 25.7 | 0.00 | 0.00 | 0.00 | 38 | 1005.9 |
| 20260507132859 | 18 | 151 | 11.3 | 27.4 | 0.00 | 0.00 | 0.00 | 38 | 1006.0 |
| 20260507132359 | 18 | 159 | 16.1 | 22.5 | 0.00 | 0.00 | 0.00 | 36 | 1005.8 |
| 20260507131900 | 18 | 184 | 11.3 | 22.5 | 0.00 | 0.00 | 0.00 | 40 | 1005.9 |
| 20260507131400 | 18 | 203 | 11.3 | 20.9 | 0.00 | 0.00 | 0.00 | 37 | 1005.8 |
| 20260507130859 | 18 | 160 | 14.5 | 22.5 | 0.00 | 0.00 | 0.00 | 39 | 1006.0 |
| 20260507130411 | 18 | 136 | 11.3 | 22.5 | 0.00 | 0.00 | 0.00 | 43 | 1006.1 |
| 20260507125400 | 17 | 186 | 3.2 | 11.3 | 0.00 | 0.00 | 0.00 | 45 | 1006.3 |
| 20260507124859 | 18 | 168 | 6.4 | 14.5 | 0.00 | 0.00 | 0.00 | 45 | 1006.0 |
| 20260507124359 | 18 | 104 | 4.8 | 19.3 | 0.00 | 0.00 | 0.00 | 43 | 1006.2 |
| 20260507123900 | 17 | 151 | 8.0 | 19.3 | 0.00 | 0.00 | 0.00 | 47 | 1006.6 |
| 20260507123400 | 17 | 244 | 8.0 | 20.9 | 0.00 | 0.00 | 0.00 | 46 | 1006.6 |
| 20260507122859 | 17 | 133 | 8.0 | 25.7 | 0.00 | 0.00 | 0.00 | 48 | 1006.6 |
| 20260507122400 | 18 | 128 | 9.7 | 19.3 | 0.00 | 0.00 | 0.00 | 46 | 1006.6 |
| 20260507121900 | 17 | 121 | 9.7 | 16.1 | 0.00 | 0.00 | 0.00 | 47 | 1006.9 |
| 20260507120900 | 16 | 279 | 3.2 | 11.3 | 0.00 | 0.00 | 0.00 | 49 | 1007.2 |
| 20260507115859 | 16 | 182 | 3.2 | 9.7 | 0.00 | 0.00 | 0.00 | 51 | 1007.6 |
| 20260507115359 | 16 | 166 | 4.8 | 24.1 | 0.00 | 0.00 | 0.00 | 50 | 1007.5 |
| 20260507114859 | 16 | 168 | 4.8 | 12.9 | 0.00 | 0.00 | 0.00 | 53 | 1007.8 |
| 20260507114359 | 16 | 267 | 4.8 | 9.7 | 0.00 | 0.00 | 0.00 | 50 | 1007.8 |
| 20260507112900 | 17 | 83 | 4.8 | 8.0 | 0.00 | 0.00 | 0.00 | 47 | 1007.6 |
| 20260507112400 | 16 | 97 | 4.8 | 8.0 | 0.00 | 0.00 | 0.00 | 52 | 1007.9 |
| 20260507111859 | 15 | 101 | 3.2 | 8.0 | 0.00 | 0.00 | 0.00 | 54 | 1008.0 |